Home   Weather   Wilkes-Barre   Past weeks
Flag for USA

Past Weather in Wilkes-Barre, Pennsylvania, USA — Yesterday and Last 2 Weeks

Now
45 °F

Overcast.


Feels Like: 40 °F
Forecast: 58 / 44 °F
Wind: 9 mph from North

Location: Barre - Scranton - Wilkes-Barre / Scranton International Airport

Current Time: Apr 3, 2020 at 11:24:59 pm

Latest Report: Apr 3, 2020 at 10:54 pm


Visibility: 10 mi

Pressure: 29.93 "Hg

Humidity: 80%

Dew Point: 39 °F

Location of Wilkes-BarreLocation

Past Weather in Wilkes-Barre — Graph

°F

Wilkes-Barre Temperature Yesterday

Maximum temperature yesterday: 53 °F (at 4:54 pm)
Minimum temperature yesterday: 33 °F (at 5:54 am)
Average temperature yesterday: 43 °F

High & Low Weather Summary for the Past Weeks

 TemperatureHumidityPressure
High72 °F (Mar 20, 4:54 pm)92% (Mar 23, 3:10 pm)30.63 "Hg (Mar 23, 3:10 pm)
Low22 °F (Mar 22, 5:54 am)24% (Mar 27, 3:54 pm)29.72 "Hg (Apr 3, 2:54 am)
Average44 °F67%30.02 "Hg
* Reported Mar 19 9:06 pm — Apr 3 9:54 pm, Wilkes-Barre. Weather by CustomWeather, © 2020

Note: Actual official high and low records may vary slightly from our data, if they occured in-between our weather recording intervals... More about our weather records

Wilkes-Barre Weather History for the Previous 24 Hours

Scroll right to see more
 ConditionsComfort  
Time TempWeatherWind HumidityBarometerVisibility
9:54 pm
Fri, Apr 3
45 °FOvercast.9 mph80%29.93 "Hg10 mi
9:10 pm45 °FOvercast.7 mph80%29.92 "Hg10 mi
8:54 pm45 °FLight rain. Overcast.9 mph80%29.92 "Hg10 mi
7:54 pm46 °FLight rain. Mostly cloudy.15 mph77%29.90 "Hg10 mi
6:54 pm47 °FLight rain. Overcast.8 mph71%29.88 "Hg10 mi
5:54 pm48 °FOvercast.16 mph63%29.85 "Hg10 mi
4:54 pm48 °FLight rain. Overcast.12 mph66%29.83 "Hg10 mi
3:54 pm49 °FOvercast.13 mph61%29.81 "Hg10 mi
2:54 pm48 °FOvercast.13 mph63%29.82 "Hg10 mi
1:54 pm47 °FOvercast.17 mph66%29.81 "Hg10 mi
12:54 pm45 °FOvercast.17 mph71%29.81 "Hg10 mi
11:54 am42 °FOvercast.9 mph76%29.81 "Hg10 mi
10:54 am41 °FLight rain. Overcast.7 mph82%29.81 "Hg10 mi
9:54 am40 °FLight rain. Mostly cloudy.9 mph80%29.80 "Hg10 mi
8:54 am41 °FLight rain. Overcast.13 mph70%29.78 "Hg10 mi
7:54 am42 °FOvercast.12 mph60%29.76 "Hg10 mi
7:24 am42 °FOvercast.13 mph60%29.74 "Hg10 mi
6:54 am43 °FMostly cloudy.12 mph58%29.74 "Hg10 mi
5:54 am43 °FOvercast.12 mph56%29.72 "Hg10 mi
4:54 am43 °FOvercast.14 mph56%29.72 "Hg10 mi
3:54 am44 °FOvercast.17 mph51%29.72 "Hg10 mi
2:54 am45 °FOvercast.14 mph45%29.72 "Hg10 mi
1:54 am45 °FClear.10 mph44%29.73 "Hg10 mi
12:54 am45 °FClear.10 mph42%29.74 "Hg10 mi
11:54 pm
Thu, Apr 2
46 °FClear.13 mph42%29.75 "Hg10 mi
Weather by CustomWeather, © 2020

See weather overview

Advertising